Location: Julian California
(33.0790°N, 116.6010°W)
Time: 08:19:08
(UTC-07:00)

Cosmos 1048 Rocket - Pass Details

Date: 14 June 2018
Orbit: 743 x 793 km, 74.0° (Epoch: 20 June)

Event Time Altitude Azimuth Distance (km) Brightness Sun altitude
Exits shadow 22:15:25 58° 152° (SSE) 893 3.9 -23.1°
Maximum altitude 22:16:12 68° 104° (ESE) 833 3.9 -23.2°
Drops below altitude 10° 22:21:28 10° 22° (NNE) 2,339 6.9 -23.8°
Sets 22:23:53 0° 20° (NNE) 3,277 7.7 -24.1°
